Date String (YYYY-MM-DD hh:mm:ss) UTC,Instrument flags,absolute air pressure of the measurement (hPa),sample flow rate (lpm),inlet stack bypass flow (lpm),air temperature of the measurement (°C),ambient temperature measured by the external sensor (°C),aerosol sample conditioner tube jacket temperature (°C),OPC LED temperature (°C),internal box temperature (°C),relative humidity of the measurement (%),span deviation,mass concentration of particles derived from Lorenz-Mie calculation of OPC scattering (μg/m³),mass concentration of particles derived from Lorenz-Mie calculation of OPC scattering (μg/m³),mass concentration of particles derived from Lorenz-Mie calculation of OPC scattering (μg/m³)
DateTimeUTC,F1_M11,P_M11,Q1_M11,Q2_M11,T1_M11,T2_M11,T3_M11,T4_M11,T5_M11,U1_M11,ZSPAN_M11,X0_M11,X2_M11,X1_M11
2023-09-27 15:00:00,SystemResetWarning,0832.9,5.00,000.00,028.7,026.9,000.0,037.2,030.3,17.5,0000.0,0022.06,0006.88,0005.00
2023-09-27 15:01:00,SystemResetWarning,0832.9,5.00,000.00,028.7,027.0,000.0,037.2,030.4,17.9,0000.0,0021.92,0006.81,0005.00
2023-09-27 15:02:00,SystemResetWarning,0833.0,5.00,000.00,028.7,027.1,000.0,037.2,030.4,17.4,0000.0,0021.64,0006.75,0004.99
2023-09-27 15:03:00,SystemResetWarning,0832.9,5.00,000.00,028.7,027.2,000.0,037.2,030.4,17.4,0000.0,0021.99,0006.82,0004.99
2023-09-27 15:04:00,SystemResetWarning,0832.9,5.00,000.00,028.7,027.3,000.0,037.2,030.4,16.7,0000.0,0022.08,0006.81,0004.99
2023-09-27 15:05:00,SystemResetWarning,0833.0,4.99,000.00,028.8,027.3,000.0,037.3,030.5,17.1,0000.0,0021.92,0006.77,0004.99
2023-09-27 15:06:00,SystemResetWarning,0832.9,5.00,000.00,028.8,027.4,000.0,037.3,030.5,18.0,0000.0,0021.84,0006.82,0004.98
2023-09-27 15:07:00,SystemResetWarning,0832.9,4.99,000.00,028.8,027.5,000.0,037.3,030.5,18.2,0000.0,0022.05,0006.79,0004.98
2023-09-27 15:08:00,SystemResetWarning,0833.0,5.00,000.00,028.8,027.5,000.0,037.3,030.5,18.6,0000.0,0022.39,0006.78,0004.96
2023-09-27 15:09:00,SystemResetWarning,0833.0,5.00,000.00,028.8,027.5,000.0,037.3,030.6,19.6,0000.0,0021.95,0006.74,0004.96
2023-09-27 15:10:00,SystemResetWarning,0833.0,5.00,000.00,028.9,027.6,000.0,037.3,030.6,19.2,0000.0,0021.28,0006.71,0004.95
2023-09-27 15:11:00,SystemResetWarning,0833.0,5.01,000.00,028.9,027.6,000.0,037.3,030.6,18.6,0000.0,0021.19,0006.64,0004.94
2023-09-27 15:12:00,SystemResetWarning,0833.0,5.00,000.00,028.9,027.6,000.0,037.3,030.6,18.6,0002.3,0020.46,0006.69,0004.92
2023-09-27 15:13:00,SystemResetWarning,0833.0,4.99,000.00,028.9,027.7,000.0,037.3,030.7,18.9,0002.5,0020.20,0006.74,0004.91
2023-09-27 15:14:00,SystemResetWarning,0833.0,4.99,000.00,028.9,027.7,000.0,037.3,030.7,19.1,0001.7,0020.90,0006.71,0004.90
2023-09-27 15:15:00,SystemResetWarning,0833.0,5.01,000.00,028.9,027.7,000.0,037.3,030.7,18.3,0001.5,0021.36,0006.73,0004.88
2023-09-27 15:16:00,SystemResetWarning,0832.9,5.02,000.00,029.0,027.7,000.0,037.3,030.7,17.6,0000.2,0021.38,0006.75,0004.86
2023-09-27 15:17:00,SystemResetWarning,0833.0,5.00,000.00,029.0,027.8,000.0,037.4,030.7,18.0,0000.0,0021.34,0006.71,0004.85
2023-09-27 15:18:00,SystemResetWarning,0833.0,4.99,000.00,029.0,027.6,000.0,037.4,030.8,18.2,0000.0,0020.35,0006.69,0004.83
2023-09-27 15:19:00,SystemResetWarning,0832.9,5.00,000.00,029.0,026.2,000.0,037.3,030.7,18.1,-000.1,0019.28,0006.65,0004.82
2023-09-27 15:20:00,SystemResetWarning,0832.9,5.01,000.00,028.9,024.9,000.0,037.3,030.5,18.8,-000.0,0019.14,0006.64,0004.82
2023-09-27 15:21:00,SystemResetWarning,0833.0,5.01,000.00,028.8,024.9,000.0,037.2,030.4,19.0,-000.3,0019.78,0006.64,0004.81
2023-09-27 15:22:00,SystemResetWarning,0832.9,5.00,000.00,028.7,025.2,000.0,037.3,030.2,18.1,-000.0,0020.57,0006.74,0004.80
2023-09-27 15:23:00,SystemResetWarning,0832.9,4.99,000.00,028.7,025.5,000.0,037.3,030.2,18.4,0000.4,0021.15,0006.76,0004.80
2023-09-27 15:24:00,SystemResetWarning,0832.9,5.00,000.00,028.6,025.9,000.0,037.2,030.2,18.2,-000.1,0021.05,0006.71,0004.79
2023-09-27 15:25:00,SystemResetWarning,0833.0,5.01,000.00,028.6,026.2,000.0,037.2,030.2,18.2,0000.2,0020.72,0006.70,0004.78
2023-09-27 15:26:00,SystemResetWarning,0833.0,5.01,000.00,028.6,026.5,000.0,037.2,030.3,18.7,0000.3,0020.09,0006.66,0004.77
2023-09-27 15:27:00,SystemResetWarning,0832.9,5.00,000.00,028.6,026.7,000.0,037.2,030.3,18.8,0000.7,0020.96,0006.62,0004.77
2023-09-27 15:28:00,SystemResetWarning,0832.9,5.00,000.00,028.7,026.9,000.0,037.2,030.3,18.6,0001.3,0021.89,0006.60,0004.76
2023-09-27 15:29:00,SystemResetWarning,0832.9,5.00,000.00,028.7,027.0,000.0,037.2,030.4,18.6,0002.0,0022.38,0006.62,0004.77
2023-09-27 15:30:00,SystemResetWarning,0833.0,5.00,000.00,028.7,027.2,000.0,037.2,030.4,18.4,0002.1,0022.85,0006.67,0004.77
2023-09-27 15:31:00,SystemResetWarning,0833.0,5.00,000.00,028.7,027.3,000.0,037.2,030.5,18.4,0002.3,0021.88,0006.69,0004.77
2023-09-27 15:32:00,SystemResetWarning,0832.9,5.00,000.00,028.7,027.4,000.0,037.2,030.5,18.3,0002.8,0020.98,0006.62,0004.77
2023-09-27 15:33:00,SystemResetWarning,0833.0,4.99,000.00,028.8,027.5,000.0,037.2,030.5,18.2,0003.0,0020.23,0006.51,0004.79
2023-09-27 15:34:00,SystemResetWarning,0833.1,5.00,000.00,028.8,027.5,000.0,037.2,030.6,18.4,0002.5,0019.34,0006.52,0004.80
2023-09-27 15:35:00,SystemResetWarning,0833.2,4.99,000.00,028.8,027.6,000.0,037.3,030.6,18.5,0003.0,0019.70,0006.55,0004.82
2023-09-27 15:36:00,SystemResetWarning,0832.9,5.00,000.00,028.9,027.7,000.0,037.3,030.6,18.7,0003.0,0019.91,0006.53,0004.82
2023-09-27 15:37:00,SystemResetWarning,0832.9,5.00,000.00,028.9,027.8,000.0,037.3,030.7,18.4,0002.9,0020.32,0006.51,0004.83
2023-09-27 15:38:00,SystemResetWarning,0833.2,4.99,000.00,028.9,027.4,000.0,037.3,030.7,18.5,0002.8,0019.72,0006.51,0004.82
2023-09-27 15:39:00,SystemResetWarning,0833.0,5.00,000.00,028.9,025.6,000.0,037.2,030.5,18.4,0003.0,0018.22,0006.53,0004.83
2023-09-27 15:40:00,SystemResetWarning,0832.9,5.01,000.00,028.8,024.8,000.0,037.1,030.4,18.9,0003.0,0016.95,0006.49,0004.82
2023-09-27 15:41:00,SystemResetWarning,0832.8,5.02,000.00,028.8,025.0,000.0,037.1,030.3,19.3,0000.6,0016.93,0006.45,0004.81
2023-09-27 15:42:00,SystemResetWarning,0832.8,4.99,000.00,028.7,025.3,000.0,037.2,030.2,19.4,0001.1,0017.76,0006.42,0004.79
2023-09-27 15:43:00,SystemResetWarning,0832.8,5.00,000.00,028.6,025.7,000.0,037.2,030.2,19.2,0000.2,0019.94,0006.44,0004.76
2023-09-27 15:44:00,SystemResetWarning,0832.8,5.00,000.00,028.6,026.0,000.0,037.2,030.2,19.6,0001.5,0020.06,0006.47,0004.74
2023-09-27 15:45:00,SystemResetWarning,0832.7,5.00,000.00,028.6,026.3,000.0,037.1,030.2,19.2,0002.0,0020.72,0006.48,0004.72
2023-09-27 15:46:00,SystemResetWarning,0832.7,5.00,000.00,028.6,026.5,000.0,037.1,030.2,18.9,0001.9,0021.20,0006.49,0004.72
2023-09-27 15:47:00,SystemResetWarning,0832.7,5.00,000.00,028.6,026.8,000.0,037.1,030.3,18.9,0001.9,0020.65,0006.46,0004.69
2023-09-27 15:48:00,SystemResetWarning,0832.7,5.00,000.00,028.6,026.9,000.0,037.1,030.3,19.0,0001.5,0021.18,0006.48,0004.67
2023-09-27 15:49:00,SystemResetWarning,0832.7,4.99,000.00,028.6,027.1,000.0,037.1,030.4,19.2,0001.3,0021.03,0006.43,0004.67
2023-09-27 15:50:00,SystemResetWarning,0832.6,5.00,000.00,028.7,027.2,000.0,037.1,030.4,19.0,0000.7,0021.06,0006.34,0004.67
2023-09-27 15:51:00,SystemResetWarning,0832.7,5.00,000.00,028.7,027.3,000.0,037.2,030.4,18.6,0000.3,0021.36,0006.33,0004.67
2023-09-27 15:52:00,SystemResetWarning,0832.6,5.01,000.00,028.7,027.4,000.0,037.2,030.5,18.6,0000.5,0021.23,0006.36,0004.67
2023-09-27 15:53:00,SystemResetWarning,0832.6,5.01,000.00,028.7,027.5,000.0,037.2,030.5,18.7,0001.4,0021.21,0006.35,0004.68
2023-09-27 15:54:00,SystemResetWarning,0832.6,5.00,000.00,028.8,027.6,000.0,037.2,030.5,19.1,0001.9,0019.89,0006.36,0004.68
2023-09-27 15:55:00,SystemResetWarning,0832.6,5.00,000.00,028.8,027.6,000.0,037.2,030.6,18.9,0001.5,0020.03,0006.38,0004.69
2023-09-27 15:56:00,SystemResetWarning,0832.6,4.99,000.00,028.8,027.7,000.0,037.2,030.6,18.8,0000.5,0019.63,0006.36,0004.69
2023-09-27 15:57:00,SystemResetWarning,0832.6,5.00,000.00,028.9,027.8,000.0,037.2,030.7,19.0,0000.2,0019.38,0006.30,0004.69
2023-09-27 15:58:00,SystemResetWarning,0832.6,4.99,000.00,028.9,027.0,000.0,037.2,030.7,19.1,-000.2,0020.10,0006.27,0004.70
2023-09-27 15:59:00,SystemResetWarning,0832.6,5.00,000.00,028.8,025.3,000.0,037.2,030.4,19.3,-000.7,0019.64,0006.22,0004.71
